Rhapsody Of The Seas — C6UA2 — position and weather

sailwx.info

Track history (hours):
 
Tides and Currents Weather Stations Pressure Air Temp Water Temp Dewpoint Dewpoint Depression Visibility Wind Speed Wind Dir Waves Ship Positions

Rhapsody Of The Seas

Last reported at 2017-Feb-23 23:17 UTC. Time now 2017-Feb-24 08:20 UTC.
Position N 20°40' W 086°53'.

Type: Passenger vessel. MMSI: 311805000.

Date/timePositionNaut miles runAvg speedWind from/ knotsBaromVisibWave heightAir tempDewpointWater temp
2017-Feb-23 23:17N 20°40' W 086°53'1014.2
2017-Feb-23 22:34N 20°31' W 086°58'0 0.1
2017-Feb-23 21:27N 20°31' W 086°57'0 0.0
2017-Feb-23 20:30N 20°31' W 086°57'0 0.0
2017-Feb-23 19:33N 20°31' W 086°57'0 0.0
2017-Feb-23 18:33N 20°31' W 086°57'0 0.0
2017-Feb-23 17:33N 20°31' W 086°57'0 0.0
2017-Feb-23 16:33N 20°31' W 086°57'0 0.0
2017-Feb-23 15:30N 20°31' W 086°57'0 0.0
2017-Feb-23 14:30N 20°31' W 086°57'0 0.0
2017-Feb-23 13:24N 20°31' W 086°57'0 0.0
2017-Feb-23 12:33N 20°31' W 086°57'0 0.1
2017-Feb-23 11:33N 20°31' W 086°57'7 7.3
2017-Feb-23 10:33N 20°27' W 087°04'131 5.3
2017-Feb-22 10:00N 18°18' W 087°30'30 6.0 330 / 161011.0 25.022.227.0
2017-Feb-22 05:00N 17°48' W 087°30'64 3.2 150 / 191012.0 27.025.627.0
2017-Feb-21 09:00N 16°48' W 087°54'121 5.0 100 / 191013.0 25.023.627.0
2017-Feb-20 09:00N 18°00' W 086°12'46918.8 140 / 401013.0 25.022.227.0
2017-Feb-19 08:00N 25°30' W 083°48'13916.3 140 / 111016.0 23.021.623.0
2017-Feb-18 23:28N 27°36' W 082°44'1314.7
2017-Feb-18 22:34N 27°44' W 082°32'1211.8
2017-Feb-18 21:33N 27°55' W 082°27'2 1.8
2017-Feb-18 20:33N 27°57' W 082°27'0 0.0
2017-Feb-18 19:30N 27°57' W 082°27'0 0.0
2017-Feb-18 18:33N 27°57' W 082°27'0 0.0
2017-Feb-18 17:33N 27°57' W 082°27'0 0.0
2017-Feb-18 16:33N 27°57' W 082°27'0 0.0
2017-Feb-18 15:33N 27°57' W 082°27'0 0.0
2017-Feb-18 14:33N 27°57' W 082°27'0 0.0
2017-Feb-18 13:33N 27°57' W 082°27'0 0.0
2017-Feb-18 12:33N 27°57' W 082°27'0 0.1
2017-Feb-18 11:33N 27°57' W 082°27'7 7.0
2017-Feb-18 10:34N 27°50' W 082°27'1313.0
2017-Feb-18 09:33N 27°39' W 082°36'1414.1
2017-Feb-18 08:34N 27°36' W 082°52'59 9.0
2017-Feb-18 02:00N 26°42' W 083°18'21014.0 030 / 91017.010.8 19.014.123.0
2017-Feb-17 11:00N 23°36' W 085°06'10016.7 050 / 101016.0 23.016.926.0
2017-Feb-17 05:00N 22°06' W 085°54'10516.1 010 / 191015.010.8 25.020.727.0
2017-Feb-16 22:28N 20°37' W 086°55'7 6.9
2017-Feb-16 21:28N 20°31' W 086°57'0 0.0
2017-Feb-16 20:25N 20°31' W 086°57'0 0.0
2017-Feb-16 19:25N 20°31' W 086°57'0 0.0
2017-Feb-16 18:31N 20°31' W 086°57'0 0.0
2017-Feb-16 17:31N 20°31' W 086°57'0 0.0
2017-Feb-16 16:31N 20°31' W 086°57'0 0.0
2017-Feb-16 15:25N 20°31' W 086°57'0 0.0
2017-Feb-16 14:31N 20°31' W 086°57'0 0.0
2017-Feb-16 13:31N 20°31' W 086°57'0 0.0
2017-Feb-16 12:31N 20°31' W 086°57'0 0.0
2017-Feb-16 11:33N 20°31' W 086°57'7 7.4
2017-Feb-16 10:34N 20°27' W 087°04'143 5.4
2017-Feb-15 08:00N 18°06' W 087°30'68 3.0 140 / 151011.0 25.022.227.0
2017-Feb-14 09:00N 17°00' W 087°48'   090 / 151013.0 25.023.626.0
Track history (hours):
 
Tides and Currents Weather Stations Pressure Air Temp Water Temp Dewpoint Dewpoint Depression Visibility Wind Speed Wind Dir Waves Ship Positions

Rhapsody Of The Seas

Last reported at 2017-Feb-23 23:17 UTC. Time now 2017-Feb-24 08:20 UTC.
Position N 20°40' W 086°53'.

Type: Passenger vessel. MMSI: 311805000.

Date/timePositionNaut miles runAvg speedWind from/ knotsBaromVisibWave heightAir tempDewpointWater temp
2017-Feb-23 23:17N 20°40' W 086°53'1014.2
2017-Feb-23 22:34N 20°31' W 086°58'0 0.1
2017-Feb-23 21:27N 20°31' W 086°57'0 0.0
2017-Feb-23 20:30N 20°31' W 086°57'0 0.0
2017-Feb-23 19:33N 20°31' W 086°57'0 0.0
2017-Feb-23 18:33N 20°31' W 086°57'0 0.0
2017-Feb-23 17:33N 20°31' W 086°57'0 0.0
2017-Feb-23 16:33N 20°31' W 086°57'0 0.0
2017-Feb-23 15:30N 20°31' W 086°57'0 0.0
2017-Feb-23 14:30N 20°31' W 086°57'0 0.0
2017-Feb-23 13:24N 20°31' W 086°57'0 0.0
2017-Feb-23 12:33N 20°31' W 086°57'0 0.1
2017-Feb-23 11:33N 20°31' W 086°57'7 7.3
2017-Feb-23 10:33N 20°27' W 087°04'131 5.3
2017-Feb-22 10:00N 18°18' W 087°30'30 6.0 330 / 161011.0 25.022.227.0
2017-Feb-22 05:00N 17°48' W 087°30'64 3.2 150 / 191012.0 27.025.627.0
2017-Feb-21 09:00N 16°48' W 087°54'121 5.0 100 / 191013.0 25.023.627.0
2017-Feb-20 09:00N 18°00' W 086°12'46918.8 140 / 401013.0 25.022.227.0
2017-Feb-19 08:00N 25°30' W 083°48'13916.3 140 / 111016.0 23.021.623.0
2017-Feb-18 23:28N 27°36' W 082°44'1314.7
2017-Feb-18 22:34N 27°44' W 082°32'1211.8
2017-Feb-18 21:33N 27°55' W 082°27'2 1.8
2017-Feb-18 20:33N 27°57' W 082°27'0 0.0
2017-Feb-18 19:30N 27°57' W 082°27'0 0.0
2017-Feb-18 18:33N 27°57' W 082°27'0 0.0
2017-Feb-18 17:33N 27°57' W 082°27'0 0.0
2017-Feb-18 16:33N 27°57' W 082°27'0 0.0
2017-Feb-18 15:33N 27°57' W 082°27'0 0.0
2017-Feb-18 14:33N 27°57' W 082°27'0 0.0
2017-Feb-18 13:33N 27°57' W 082°27'0 0.0
2017-Feb-18 12:33N 27°57' W 082°27'0 0.1
2017-Feb-18 11:33N 27°57' W 082°27'7 7.0
2017-Feb-18 10:34N 27°50' W 082°27'1313.0
2017-Feb-18 09:33N 27°39' W 082°36'1414.1
2017-Feb-18 08:34N 27°36' W 082°52'59 9.0
2017-Feb-18 02:00N 26°42' W 083°18'21014.0 030 / 91017.010.8 19.014.123.0
2017-Feb-17 11:00N 23°36' W 085°06'10016.7 050 / 101016.0 23.016.926.0
2017-Feb-17 05:00N 22°06' W 085°54'10516.1 010 / 191015.010.8 25.020.727.0
2017-Feb-16 22:28N 20°37' W 086°55'7 6.9
2017-Feb-16 21:28N 20°31' W 086°57'0 0.0
2017-Feb-16 20:25N 20°31' W 086°57'0 0.0
2017-Feb-16 19:25N 20°31' W 086°57'0 0.0
2017-Feb-16 18:31N 20°31' W 086°57'0 0.0
2017-Feb-16 17:31N 20°31' W 086°57'0 0.0
2017-Feb-16 16:31N 20°31' W 086°57'0 0.0
2017-Feb-16 15:25N 20°31' W 086°57'0 0.0
2017-Feb-16 14:31N 20°31' W 086°57'0 0.0
2017-Feb-16 13:31N 20°31' W 086°57'0 0.0
2017-Feb-16 12:31N 20°31' W 086°57'0 0.0
2017-Feb-16 11:33N 20°31' W 086°57'7 7.4
2017-Feb-16 10:34N 20°27' W 087°04'143 5.4
2017-Feb-15 08:00N 18°06' W 087°30'68 3.0 140 / 151011.0 25.022.227.0
2017-Feb-14 09:00N 17°00' W 087°48'   090 / 151013.0 25.023.626.0

Dump ship's entire track history